San Jose, CA

2:08 PM PDT on July 20, 2017 (GMT -0700)
San Jose International

Weather History for KSJC - March, 2013

Change the Weather History Date:

Tuesday, March 5, 2013

  Actual Average Record
Temperature  
Mean Temperature 52 °F 55 °F  
Max Temperature 59 °F 65 °F 80 °F (1959)
Min Temperature 44 °F 46 °F 33 °F (1967)
Degree Days  
Heating Degree Days 13 10  
Month to date heating degree days 45 50  
Since 1 July heating degree days 1651 1715  
Cooling Degree Days 0 0  
Month to date cooling degree days 0 0  
Year to date cooling degree days 0 0  
Growing Degree Days 2 (Base 50)    
Moisture  
Dew Point 41 °F    
Average Humidity 68    
Maximum Humidity 89    
Minimum Humidity 47    
Precipitation  
Precipitation 0.01 in 0.09 in 1.20 in (2016)
Month to date precipitation 0.01 0.51  
Year to date precipitation 0.82 6.69  
Since 1 July precipitation 8.01  
Sea Level Pressure  
Sea Level Pressure 30.01 in    
Wind  
Wind Speed 12 mph (SE)    
Max Wind Speed 30 mph    
Max Gust Speed 38 mph    
Visibility 10 miles    
Events Rain    
T = Trace of Precipitation, MM = Missing Value Source: NWS Daily Summary

Daily Weather History Graph

Daily Weather History Graph

Search for Another Location

Airport or City:

Trip Planner

Search our weather history database for the weather conditions in past years. The results will help you decide how hot, cold, wet, or windy it might be!

Date:

Astronomy

Mar. 05, 2013 Rise Set
Actual Time 6:32 AM PST 6:05 PM PST
Civil Twilight 6:06 AM PST 6:32 PM PST
Nautical Twilight 5:36 AM PST 7:02 PM PST
Astronomical Twilight 5:06 AM PST 7:32 PM PST
Moon 1:44 AM PST (3/5) 11:56 AM PST (3/5)
Length of Visible Light 12h 25m
Length of Day
11h 33m
Last Quarter, 39% of the Moon is Illuminated
Mar 5
Last Quarter
Mar 11
New
Mar 19
First Quarter
Mar 27
Full
Apr 2
Last Quarter

Hourly Weather History & Observations

Time (PST) Temp. Windchill Dew Point Humidity Pressure Visibility Wind Dir Wind Speed Gust Speed Precip Events Conditions
12:53 AM 46.9 °F - 42.1 °F 83% 30.07 in 10.0 mi Calm Calm - N/A   Clear
1:53 AM 45.0 °F - 41.0 °F 86% 30.07 in 10.0 mi Calm Calm - N/A   Clear
2:53 AM 45.0 °F - 41.0 °F 86% 30.07 in 10.0 mi Calm Calm - N/A   Mostly Cloudy
3:20 AM 46.4 °F - 41.0 °F 81% 30.08 in 10.0 mi Calm Calm - N/A   Overcast
3:53 AM 45.0 °F 43.5 °F 41.0 °F 86% 30.07 in 10.0 mi East 3.5 mph - N/A   Overcast
4:38 AM 46.4 °F - 42.8 °F 87% 30.09 in 10.0 mi Calm Calm - N/A   Overcast
4:53 AM 46.4 °F 44.3 °F 42.8 °F 87% 30.08 in 10.0 mi East 4.6 mph - N/A   Overcast
5:53 AM 46.9 °F - 42.1 °F 83% 30.08 in 10.0 mi ESE 3.5 mph - N/A   Overcast
6:00 AM 46.4 °F 44.3 °F 42.8 °F 87% 30.08 in 10.0 mi SE 4.6 mph - N/A   Overcast
6:53 AM 46.9 °F - 43.0 °F 86% 30.08 in 9.0 mi ESE 6.9 mph - N/A   Overcast
7:38 AM 46.4 °F 41.5 °F 42.8 °F 87% 30.08 in 10.0 mi ESE 10.4 mph - N/A   Scattered Clouds
7:53 AM 48.0 °F - 42.1 °F 80% 30.08 in 10.0 mi ESE 10.4 mph - N/A   Clear
8:53 AM 50.0 °F - 41.0 °F 71% 30.06 in 10.0 mi SE 15.0 mph - N/A   Clear
9:53 AM 52.0 °F - 39.9 °F 63% 30.04 in 10.0 mi ESE 17.3 mph - N/A   Clear
10:53 AM 55.9 °F - 39.0 °F 53% 30.04 in 10.0 mi SE 11.5 mph 19.6 mph N/A   Clear
11:53 AM 59.0 °F - 39.9 °F 49% 30.02 in 10.0 mi South 11.5 mph - N/A   Clear
12:53 PM 57.9 °F - 39.9 °F 51% 30.00 in 10.0 mi South 15.0 mph 23.0 mph N/A   Clear
1:53 PM 57.0 °F - 39.9 °F 53% 29.98 in 10.0 mi South 16.1 mph 23.0 mph N/A   Clear
2:53 PM 55.9 °F - 39.0 °F 53% 29.97 in 10.0 mi SSW 16.1 mph 21.9 mph N/A   Clear
3:53 PM 55.0 °F - 39.0 °F 55% 29.97 in 10.0 mi South 16.1 mph - N/A   Clear
4:53 PM 54.0 °F - 39.0 °F 57% 29.95 in 10.0 mi SSE 15.0 mph 21.9 mph N/A   Partly Cloudy
5:53 PM 52.0 °F - 41.0 °F 66% 29.93 in 10.0 mi South 13.8 mph 20.7 mph N/A   Partly Cloudy
6:53 PM 52.0 °F - 39.0 °F 61% 29.92 in 10.0 mi SE 10.4 mph - N/A   Scattered Clouds
7:53 PM 51.1 °F - 41.0 °F 68% 29.89 in 10.0 mi SSE 25.3 mph 38.0 mph N/A   Partly Cloudy
8:53 PM 53.1 °F - 39.9 °F 61% 29.91 in 10.0 mi SSE 19.6 mph 27.6 mph N/A   Scattered Clouds
9:53 PM 53.1 °F - 41.0 °F 64% 29.91 in 10.0 mi SE 15.0 mph 24.2 mph 0.00 in Rain Light Rain
10:53 PM 50.0 °F - 43.0 °F 77% 29.91 in 10.0 mi SE 16.1 mph - 0.01 in Rain Light Rain
11:53 PM 48.9 °F - 42.1 °F 77% 29.90 in 10.0 mi ESE 19.6 mph 31.1 mph 0.00 in   Mostly Cloudy